Portland, ME

5:49 AM EST on December 14, 2019 (GMT -0500)
Portland International

Weather History for KPWM - October, 2019

Change the Weather History Date:

Monday, October 14, 2019

  Actual Average Record
Temperature  
Mean Temperature 57 °F 49 °F  
Max Temperature 63 °F 59 °F 78 °F (1990)
Min Temperature 52 °F 39 °F 20 °F (1958)
Degree Days  
Heating Degree Days 8 16  
Month to date heating degree days 188  
Since 1 July heating degree days 409  
Cooling Degree Days 0 0  
Month to date cooling degree days 0  
Year to date cooling degree days 358  
Growing Degree Days 7 (Base 50)    
Moisture  
Dew Point 52 °F    
Average Humidity 87    
Maximum Humidity 96    
Minimum Humidity 64    
Precipitation  
Precipitation 0.00 in 0.16 in 1.82 in (1882)
Month to date precipitation 2.14  
Year to date precipitation 35.57  
Snow  
Snow - 0.00 in 0.10 in (1913)
Month to date snowfall 0.0  
Since 1 July snowfall 0.0  
Since 1 September snowfall 0.0  
Snow Depth -    
Sea Level Pressure  
Sea Level Pressure 29.99 in    
Wind  
Wind Speed 3 mph ()    
Max Wind Speed 13 mph    
Max Gust Speed -    
Visibility 6.4 miles    
Events Fog    
T = Trace of Precipitation, MM = Missing Value Source: Averaged Metar Reports

Daily Weather History Graph

Daily Weather History Graph

Search for Another Location

Airport or City:

Astronomy

Oct. 14, 2019 Rise Set
Actual Time 6:53 AM EDT 5:59 PM EDT
Civil Twilight 6:25 AM EDT 6:28 PM EDT
Nautical Twilight 5:51 AM EDT 7:01 PM EDT
Astronomical Twilight 5:18 AM EDT 7:35 PM EDT
Moon 6:48 PM EDT 7:21 AM EDT
Length of Visible Light 12h 03m
Length of Day
11h 06m
Waxing Gibbous, 99% of the Moon is Illuminated
Oct 14
Waxing Gibbous
Oct 21
Last Quarter
Oct 27
New
Nov 4
First Quarter
Nov 12
Full

Hourly Weather History & Observations

Time (EDT) Temp. Dew Point Humidity Pressure Visibility Wind Dir Wind Speed Gust Speed Precip Events Conditions
12:29 AM 52.0 °F 50.0 °F 93% 30.03 in 1.5 mi Calm Calm - N/A   Overcast
12:34 AM 53.1 °F 51.1 °F 93% 30.04 in 0.8 mi Calm Calm - N/A   Overcast
12:51 AM 53.1 °F 52.0 °F 96% 30.04 in 1.0 mi Calm Calm - N/A   Mist
1:07 AM 53.1 °F 52.0 °F 96% 30.03 in 2.0 mi SSW 3.5 mph - N/A   Overcast
1:28 AM 53.1 °F 52.0 °F 96% 30.04 in 4.0 mi South 3.5 mph - N/A   Overcast
1:51 AM 54.0 °F 52.0 °F 93% 30.04 in 7.0 mi SSW 5.8 mph - N/A   Overcast
2:51 AM 54.0 °F 52.0 °F 93% 30.02 in 4.0 mi Calm Calm - N/A   Overcast
3:05 AM 53.1 °F 52.0 °F 96% 30.02 in 1.8 mi South 3.5 mph - N/A   Overcast
3:13 AM 53.1 °F 52.0 °F 96% 30.02 in 0.8 mi Calm Calm - N/A   Mist
3:51 AM 53.1 °F 52.0 °F 96% 30.01 in 0.5 mi South 3.5 mph - N/A Fog Fog
4:51 AM 53.1 °F 52.0 °F 96% 30.01 in 0.8 mi SE 3.5 mph - N/A   Mist
5:19 AM 53.1 °F 51.1 °F 93% 30.01 in 1.0 mi SSE 3.5 mph - N/A   Mist
5:37 AM 53.1 °F 51.1 °F 93% 30.02 in 0.5 mi Calm Calm - N/A Fog Fog
5:51 AM 53.1 °F 52.0 °F 96% 30.01 in 0.5 mi Calm Calm - N/A Fog Fog
6:19 AM 53.1 °F 52.0 °F 96% 30.01 in 1.5 mi East 3.5 mph - N/A   Overcast
6:22 AM 53.1 °F 52.0 °F 96% 30.02 in 4.0 mi ESE 3.5 mph - N/A   Overcast
6:51 AM 53.1 °F 52.0 °F 96% 30.01 in 5.0 mi ESE 3.5 mph - N/A   Overcast
7:08 AM 53.1 °F 52.0 °F 96% 30.02 in 10.0 mi ESE 3.5 mph - N/A   Overcast
7:51 AM 54.0 °F 52.0 °F 93% 30.02 in 10.0 mi Calm Calm - N/A   Mostly Cloudy
8:51 AM 55.9 °F 52.0 °F 87% 30.03 in 10.0 mi Calm Calm - N/A   Overcast
9:16 AM 57.0 °F 52.0 °F 83% 30.02 in 10.0 mi Calm Calm - N/A   Mostly Cloudy
9:51 AM 57.9 °F 53.1 °F 84% 30.01 in 10.0 mi South 6.9 mph - N/A   Mostly Cloudy
10:51 AM 61.0 °F 52.0 °F 72% 30.01 in 10.0 mi SE 12.7 mph - N/A   Scattered Clouds
11:51 AM 61.0 °F 48.9 °F 64% 29.99 in 10.0 mi South 10.4 mph - N/A   Mostly Cloudy
12:51 PM 62.1 °F 50.0 °F 65% 29.96 in 10.0 mi South 9.2 mph - N/A   Scattered Clouds
1:51 PM 61.0 °F 52.0 °F 72% 29.95 in 10.0 mi South 10.4 mph - N/A   Scattered Clouds
2:51 PM 62.1 °F 51.1 °F 67% 29.93 in 10.0 mi South 5.8 mph - N/A   Scattered Clouds
3:51 PM 60.1 °F 52.0 °F 75% 29.92 in 10.0 mi South 9.2 mph - N/A   Mostly Cloudy
4:49 PM 59.0 °F 53.6 °F 82% 29.91 in 10.0 mi SE 8.1 mph - N/A   Overcast
4:51 PM 59.0 °F 53.1 °F 81% 29.91 in 10.0 mi SSE 10.4 mph - N/A   Overcast
5:51 PM 57.9 °F 52.0 °F 81% 29.92 in 10.0 mi SE 8.1 mph - N/A   Overcast
6:51 PM 57.9 °F 51.1 °F 78% 29.94 in 10.0 mi South 3.5 mph - N/A   Overcast
7:51 PM 57.0 °F 51.1 °F 81% 29.94 in 10.0 mi Calm Calm - N/A   Overcast
8:51 PM 57.0 °F 51.1 °F 81% 29.94 in 10.0 mi Calm Calm - N/A   Overcast
9:51 PM 57.0 °F 51.1 °F 81% 29.96 in 10.0 mi Calm Calm - N/A   Overcast
10:51 PM 57.0 °F 53.1 °F 87% 29.96 in 10.0 mi West 3.5 mph - 0.00 in   Overcast
11:51 PM 55.9 °F 52.0 °F 87% 29.97 in 9.0 mi Calm Calm - N/A   Overcast